Regional Weather Roundup
Issued by NWS

Home | Current Version | Previous Version | Graphics & Text | Print | Product List | Glossary On
Versions: 1 2 3 4 5 6 7 8 9 10 11 12 13 14 15 16 17 18 19 20 21 22 23 24 25 26 27 28 29 30 31 32 33 34 35 36 37 38 39 40 41 42 43 44 45 46 47 48 49 50
000
ASUS43 KFSD 181302
RWRSD

WEATHER ROUNDUP FOR SOUTH DAKOTA
NATIONAL WEATHER SERVICE SIOUX FALLS SD
700 AM CST SUN FEB 18 2018

NOTE: "FAIR" INDICATES FEW OR NO CLOUDS BELOW 12,000 FEET WITH NO
SIGNIFICANT WEATHER AND/OR OBSTRUCTIONS TO VISIBILITY.


SDZ001>005-009-010-012>017-181400-
NORTHWEST AND NORTH CENTRAL SOUTH DAKOTA

CITY           SKY/WX    TMP DP  RH WIND       PRES   REMARKS
BUFFALO          N/A     15  11  83 NE13      29.44R WCI   1
FAITH            N/A     16  16 100 N9        29.48R WCI   4
MOBRIDGE       CLOUDY    23  18  81 E17       29.46S WCI   9
$$

SDZ012>016-024>037-041>051-057-063-072>074-181400-
SOUTHWEST AND SOUTH CENTRAL SOUTH DAKOTA

CITY           SKY/WX    TMP DP  RH WIND       PRES   REMARKS
RAPID CTY ARPT MOCLDY    20  16  84 N21G32    29.47R WCI   4
PIERRE         NOT AVBL
CUSTER         MOCLDY    36  14  40 W6        29.42R
ELLSWORTH AFB  CLOUDY    19  18  96 N16G23    29.47R WCI   4
PHILIP         MOCLDY    23  21  92 NW16      29.45R WCI  10
PINE RIDGE     CLOUDY    42  25  50 SW13      29.39F
SPEARFISH      MIX PCPN  28  28 100 W6G15     29.50S WCI  22
WINNER         FAIR      42  23  46 S24G35    29.42F
$$

SDZ004>011-016>023-039-040-181400-
NORTHEAST SOUTH DAKOTA

CITY           SKY/WX    TMP DP  RH WIND       PRES   REMARKS
ABERDEEN       MOCLDY    29  22  75 E12       29.54F WCI  19
WATERTOWN      CLOUDY    29  22  75 SE14G26   29.56F WCI  18
BROOKINGS      CLOUDY    29  22  75 S22G32    29.57F WCI  15
SISSETON         N/A     24  16  71 SE15      29.65  WCI  11
$$

SDZ017-020-022-023-036>040-048>070-181400-
SOUTHEAST SOUTH DAKOTA

CITY           SKY/WX    TMP DP  RH WIND       PRES   REMARKS
SIOUX FALLS    CLOUDY    30  22  72 S21G32    29.62F WCI  17
HURON          CLOUDY    31  24  75 S18G28    29.48F WCI  19
CHAMBERLAIN    CLOUDY    40  26  56 S17       29.43F
MITCHELL       CLOUDY    32  24  72 SE14      29.53F WCI  22
YANKTON        CLEAR     38  22  52 S18G29    29.59F
$$

ABBREVIATIONS USED IN REMARKS
   TC - TEMPERATURE IN CELSIUS
  WCI - WIND CHILL INDEX
   HX - HEAT INDEX
  VSB - VISIBILITY




USA.gov is the U.S. government's official web portal to all federal, state and local government web resources and services.